Погода в Акъяре

Погода в Акъяре : погода сейчас, прогноз погоды и архив. Всё, что Вы хотите узнать о погоде в Акъяре!

Поиск расширенной информации на нашем сайте:

Другие новости

Новости СМИ2

Главная страница сайта

Новости сайта

03.07.2017

Напоминаем, что на нашем специализированном сайте Метеоцентр.Азия вы можете получить высокодетализированные автоматические прогнозы погоды по пунктам России, СНГ и мира в авиационном формате (включающие направление и скорость ветра, видимость, явления погоды, количество и форму облачности, нижнюю и верхнюю границу облачности).


Погода в Акъяре - сегодня

Время (UTC), дата Ветер
(°,м/с) 
Видим.   Явления Облачность Т
(°С)
Тd
(°С)
f(%) Тe
(°С)
Pmin
(гПа)
dP
(гПа)
Po
(мм)
O2
(г/м3)
Тmin Tmax R s Состояние
почвы
09 19.07.18 040 (СВ) 20000 м    8/4 600 м верхняя 
[Cu med, cong|Ci]
+26.3 +14.7 49 +35  1008.4  -0.4  728  264           
12 19.07.18 040 (СВ) 20000 м    6/4 600 м верхняя 
[Cu Sc|Ci fib]
+28.4 +13.9 41 +36  1007.9  -0.3  728  263           
18 19.07.18 050 (СВ) 20000 м    6/4 600 м верхняя 
[Sc|Cs]
+21.2 +15.5 70 +32  1009.7  0.9  728  269           
21 19.07.18 060 (СВ) 20000 м    4/3 600 м верхняя 
[Sc|Cs]
+18.6 +15.3 81 +30  1010  -0.1  728  271           
00 20.07.18 030 (СВ) 10 км    4/1 600 м верхняя 
[Sc|Ci fib]
+16.9 +14.7 87 +27  1010.2  728  273           
03 20.07.18 040 (СВ) 20000 м    5/0 верхняя 
[Cs]
+20 +15 73 +29  1010.1  0.3  728  270  +16.4        влажная 
06 20.07.18 040 (СВ) 20000 м    8/0 верхняя 
[Cs]
+24.5 +14.9 55 +34  1009  -0.5  728  266           
09 20.07.18 040 (СВ) 20000 м    9/3 600 м верхняя 
[Cu med, cong|Cs]
+26.9 +14.6 47 +36  1007.9  -0.7  727  264           
12 20.07.18 040 (СВ) 20000 м    9/3 600 м кучево-дожд., верхняя 
[Cb calv|Ci ing]
+28.5 +11.9 36 +33  1007  -0.8  727  263           
18 20.07.18 040 (СВ) 20000 м    9/3 600 м кучево-дожд., верхняя 
[Cb cap|Cs]
+22.5 +14.9 62 +32  1007.7  -0.1  727  267           
21 20.07.18 050 (СВ) 5{12}  20000 м    4/0 верхняя 
[Cs]
+19.7 +15.5 77 +30  1008.2  0.2  727  270           
03 21.07.18 040 (СВ) 6{10}  20000 м    10/10 600 м кучево-дожд. 
[Cb cap]
+18.5 +15.4 82 +29  1009.3  728  271  +17.7        сухая 
06 21.07.18 040 (СВ) 6-10{11}  20000 м    9/8 600 м кучево-дожд., верхняя 
[Cb cap|Cs]
+20.3 +13.5 65 +27  1009  -0.1  728  270           
09 21.07.18 050 (СВ) 6-12{13}  20000 м    9/8 600 м кучево-дожд., верхняя 
[Cb cap|Cc]
+24 +13.5 52 +31  1008.1  -0.4  727  267           
15 21.07.18 050 (СВ) 8-16{16}  20000 м    9/9 600 м кучево-дожд., верхняя 
[Cb cap|Ci fib]
+19.6 +12.8 65 +26  1009.6  0.9  728  271    +24.4       
18 21.07.18 050 (СВ) 8-12{16}  10 км    9/9 600 м кучево-дожд., верхняя 
[Cb cap|Ci fib]
+17 +11.9 72 +20  1011.1  1.1  729  274           
21 21.07.18 050 (СВ) 6-11{14}  20000 м    3/3 600 м 
[Sc]
+14.4 +10.1 75 +16  1011.4  0.1  729  277           
03 22.07.18 060 (СВ) 7-12{13}  20000 м    5/0 верхняя 
[Cs]
+15.2 +6.7 57 +14  1012.9  0.7  730  277  +13.9        сухая 
15 22.07.18 080 (В) 7-12{14}  20000 м  пыльный позёмок  4/0 верхняя 
[Ci]
+19.5 -0.6 26 +20  1014  0.9  731  275    +21.9       
18 22.07.18 070 (В) 4{12}  20000 м    4/0 верхняя 
[Ci sp]
+14.1 +2.3 45 +14  1016.6  1.7  732  280           
21 22.07.18 060 (СВ) 20000 м    3/0 верхняя 
[Ci fib]
+9.7 +3.2 64 +9  1018.3  733  285           
00 23.07.18 060 (СВ) 20000 м    3/0 верхняя 
[Ci fib]
+7.6 +3.1 73 +8  1019.5  0.9  734  287           
03 23.07.18 070 (В) 20000 м    3/0 верхняя 
[Ci fib]
+13.2 +4.6 56 +13  1019.8  1.1  735  282  +7.3        сухая 
06 23.07.18 080 (В) 20000 м    4/1 600 м верхняя 
[Sc|Ci fib]
+18.6 +2.8 35 +19  1018.7  -0.3  734  277           
09 23.07.18 070 (В) 20000 м    3/1 600 м верхняя 
[Sc|Ci fib]
+21.5 +1.2 26 +22  1017.7  -0.6  734  274           
Время (UTC), дата Ветер
(°,м/с) 
Видим.   Явления Облачность Т
(°С)
Тd
(°С)
f(%) Тe
(°С)
Pmin
(гПа)
dP
(гПа)
Po
(мм)
O2
(г/м3)
Тmin Tmax R s Состояние
почвы

Для получения пояснительной информации подведите курсор к названию столбца.

ПОГОДА в Акъяре - архив

Всё, что Вы хотите узнать о погоде в Акъяре - удобно и подробно!

Выберите нужную дату (начиная с 1 января 2015* года) и нажмите кнопку "Найти".
Будут отображены архивные сводки погоды по пункту Акъяр, начиная с указанной даты.


Отображать данные в формате CSV (для использования в таблицах Excel)


Внимание! Наш архив погоды предназначен исключительно для личного некоммерческого использования в познавательных целях. Если Вам необходимы официальные справки о состоянии погоды (для производственных, юридических, коммерческих и т.п. целей), обращайтесь в органы Росгидромета.

*Примечание: данная дата относится к архиву по метеостанциям СССР (Россия, СНГ, Балтия).
Архив по метеостанциям Зарубежной Европы и Азии (кроме Китая) хранится 10 дней, по другим регионам земного шара (Китай, Африка, Америка, Австралия, Океания) - 1 день.

Акъяр - район местоположения метеостанции


Название, широта, долгота, высота метеостанции:
Акъяр 51.9°ш. 58.2°д. 341 м над ур. моря [Российская Федерация]

Дополнительная информация

В oтличие oт бoльшинства пoгoдных сайтoв мы публикуем пoдрoбную метеoинфoрмацию в детальнoм прoфессиoнальнoм фoрмате.

Характеристики температуры и влажнoсти вoздуха измеряются на высoте 2 м в тени вдали oт зданий и деревьев.
Скoрoсть ветра измеряется на высoте 10 м (на урoвне рoста челoвека скoрoсть ветра ниже в 1.5-2 раза). Если метеoстанция нахoдится в гoрoде или в лесу, тo скoрoсть ветра занижена на 2-4 м/с пo сравнению с oткрытым местoм. Скoрoсть ветра над акватoриями крупных рек и oзёр, а также на вершинах хoлмoв на 2-5 м/с выше, чем в oбычных услoвиях.
Атмoсфернoе давление в разных тoчках местнoсти мoжет значительнo oтличаться oт давления на метеoстанции, в зависимoсти oт услoвий рельефа (при пoдъёме на 10 м давление пoнижается примернo на 1 мм рт.ст.).